Regional Weather Roundup
Issued by NWS

Home | Current Version | Previous Version | Text Only | Print | Product List | Glossary On
Versions: 1 2 3 4 5 6 7 8 9 10 11 12 13 14 15 16 17 18 19 20 21 22 23 24 25 26 27 28 29 30 31 32 33 34 35 36 37 38 39 40 41 42 43 44 45 46 47 48 49 50
000
ASUS43 KOAX 230410
RWRNE

WEATHER ROUNDUP FOR NEBRASKA
NATIONAL WEATHER SERVICE OMAHA NE
1100 PM CDT FRI MAY 22 2015

NOTES: SATELLITE DATA IS BEING USED TO AUGMENT CLOUD COVER ABOVE
       12000 FEET.
       "FAIR" INDICATES FEW OR NO CLOUDS BELOW 12,000 FEET WITH NO
       SIGNIFICANT WEATHER AND/OR OBSTRUCTIONS TO VISIBILITY.

  * THESE STATIONS DO NOT REPORT WEATHER SUCH AS RAIN...SNOW OR FOG.

NEZ001>004-019>022-054>056-230500-
NEBRASKA PANHANDLE

CITY           SKY/WX    TMP DP  RH WIND       PRES   REMARKS
SCOTTSBLUFF    CLOUDY    46  45  96 SE15      30.08R
ALLIANCE       CLOUDY    45  44  97 SE13      30.08S
CHADRON        CLOUDY    49  44  83 SE12      30.09R
KIMBALL          N/A    N/A N/A N/A MISG        N/A
SIDNEY         CLOUDY    45  44  97 E10       30.08S FOG
$$

NEZ057>060-069>072-079>082-230500-
SOUTHWEST NEBRASKA

CITY           SKY/WX    TMP DP  RH WIND       PRES   REMARKS
NORTH PLATTE   CLOUDY    49  48  97 E13       30.10R
IMPERIAL       CLOUDY    50  49  96 SE14      30.07R FOG
LEXINGTON      CLOUDY    53  52  97 SE12      30.12S FOG
MCCOOK         CLOUDY    52  51  97 SE14      30.08R
OGALLALA       DRIZZLE   47  47  99 E7        30.08S
$$

NEZ005>010-023>029-035>040-094-230500-
NORTH CENTRAL NEBRASKA

CITY           SKY/WX    TMP DP  RH WIND       PRES   REMARKS
VALENTINE      CLOUDY    48  43  82 SE8       30.15S
AINSWORTH      CLOUDY    48  46  95 SE9       30.16S
BROKEN BOW     LGT RAIN  50  48  93 E9        30.13S FOG
O`NEILL        DRIZZLE   51  50  97 SE5       30.18S
ORD            CLOUDY    50  48  93 E7        30.15S FOG
THEDFORD       DRIZZLE   48  47  96 E9        30.14S
$$

NEZ041-046>049-061>064-073>077-083>087-230500-
SOUTH CENTRAL NEBRASKA

CITY           SKY/WX    TMP DP  RH WIND       PRES   REMARKS
GRAND ISLAND   CLOUDY    54  49  83 SE13      30.17R
AURORA         CLOUDY    55  47  73 SE7       30.16S
HASTINGS       CLOUDY    54  51  90 SE9       30.15S
HEBRON         CLOUDY    56  48  73 E3        30.17R
HOLDREGE       CLOUDY    53  52  96 SE15      30.13R FOG
KEARNEY *      CLOUDY    52  50  93 SE13      30.14S
YORK           CLOUDY    57  46  67 SE10      30.17S
$$

NEZ011>018-030>034-042>045-230500-
NORTHEAST NEBRASKA

CITY           SKY/WX    TMP DP  RH WIND       PRES   REMARKS
NORFOLK        CLOUDY    53  51  93 SE7       30.17S
ALBION         CLOUDY    53  49  85 E3        30.18R
BLAIR          CLOUDY    59  47  65 SE5       30.20R
COLUMBUS *     CLOUDY    57  45  62 SE6       30.21R
FREMONT        CLOUDY    61  45  55 SE8       30.19S
TEKAMAH        CLOUDY    59  50  72 SE8       30.19R
WAYNE          CLOUDY    54  51  87 SE5       30.19F
$$

NEZ050>053-065>068-078-088>093-230500-
SOUTHEAST NEBRASKA

CITY           SKY/WX    TMP DP  RH WIND       PRES   REMARKS
LINCOLN        CLOUDY    60  46  59 SE9       30.19R
OMAHA EPPLEY   CLOUDY    60  49  66 SE7       30.20R
BEATRICE       CLOUDY    58  45  61 SE9       30.18S
FALLS CITY     CLOUDY    57  50  77 SE5       30.20R
NEBRASKA CITY  CLOUDY    58  46  63 S5        30.21R
PLATTSMOUTH    CLOUDY    59  47  64 SE7       30.20R
$$

NEZ044-045-051>053-067-230500-
OMAHA AREA

CITY           SKY/WX    TMP DP  RH WIND       PRES   REMARKS
OMAHA EPPLEY   CLOUDY    60  49  66 SE7       30.20R
BLAIR          CLOUDY    59  47  65 SE5       30.20R
FREMONT        CLOUDY    61  45  55 SE8       30.19S
MILLARD        CLOUDY    60  49  67 SE3       30.20R
OFFUTT AFB     CLOUDY    58  50  74 SE3       30.19R
PLATTSMOUTH    CLOUDY    59  47  64 SE7       30.20R
WAHOO          CLOUDY    59  48  66 SE7       30.19R
$$



USA.gov is the U.S. government's official web portal to all federal, state and local government web resources and services.